Track STARLINK-48 now! 10-day predictions STARLINK-48 is classified as:
1 44289U 19029BG 19349.58334491 .00008098 00000-0 39092-3 0 9992 2 44289 53.0036 311.5808 0002005 39.1923 308.4204 15.19528223 32415